RH
12 17 22 27 28 23 33 40 48 49 46 58 54 54 47 47 38 40 40 40 39 38 38 42 42 49 52 55 57 66 69 78 81 88 86 84 81 75 73 79 74 77 76 74
13 15 10 15 15 16 11 26 47 33 35 47 42 58 44 44 36 36 37 38 38 39 40 40 43 52 53 56 61 68 69 78 76 80 86 83 80 74 69 76 74 76 76 76
13 10 10 12 10 9 12 13 13 28 27 25 28 37 53 42 34 34 33 43 41 41 40 40 42 55 57 57 67 70 75 77 81 76 81 84 84 83 79 85 84 75 75 77
9 8 10 12 12 11 14 10 9 10 15 17 12 16 42 49 44 39 48 62 61 46 38 41 43 55 56 58 58 70 74 77 83 78 76 81 83 88 85 79 82 75 74 74
10 10 11 11 14 13 13 10 10 12 13 14 15 12 11 48 52 63 70 78 79 76 59 57 50 57 56 52 58 68 78 74 72 78 70 73 85 85 78 82 82 76 72 75
10 9 10 12 10 9 9 12 14 16 15 17 15 12 14 58 70 77 76 76 80 77 75 76 72 65 67 62 55 67 81 78 73 76 81 79 81 79 79 80 85 80 74 70
11 12 11 8 11 11 11 18 24 26 18 17 17 36 25 60 61 63 72 80 76 80 76 80 78 77 71 70 72 64 71 76 73 72 75 77 86 76 72 83 74 79 69 77
18 16 13 12 13 14 21 15 23 30 23 17 30 57 65 64 64 66 57 63 75 78 70 66 59 72 86 83 86 80 77 77 82 78 70 74 65 76 78 75 76 77 71 64
24 21 12 10 12 12 14 18 14 18 45 23 51 64 50 42 32 31 34 57 64 62 63 64 67 78 78 82 83 82 85 88 86 80 84 72 70 64 69 76 68 74 78 69
19 21 16 12 11 12 11 12 11 18 26 26 39 51 57 39 23 21 28 32 35 38 42 46 55 66 67 72 75 86 84 86 90 88 83 77 71 68 65 70 76 74 73 72
34 18 16 14 18 15 13 21 22 19 20 19 58 49 66 57 50 38 22 28 34 36 40 49 54 55 57 63 72 78 84 86 90 92 94 81 78 71 71 66 68 75 73 78
36 28 30 18 14 14 17 26 24 26 28 28 40 40 25 39 42 40 44 41 42 44 52 62 61 62 63 67 71 72 76 77 87 92 91 88 82 70 70 71 64 66 74 71
34 32 36 30 29 24 26 24 34 26 29 24 44 44 29 35 42 43 42 47 46 40 44 64 69 68 68 70 69 71 69 68 80 90 84 92 89 86 73 71 68 62 65 70
37 35 38 41 43 32 30 25 24 28 32 35 40 42 52 46 45 45 46 43 38 42 58 66 68 66 66 66 68 66 64 68 77 84 87 89 90 91 93 90 78 80 74 66
30 38 52 38 31 29 29 26 24 34 31 29 37 47 52 51 50 49 43 41 46 48 61 64 63 66 65 67 66 66 70 71 74 82 86 88 91 87 90 92 95 89 86 87
37 43 57 44 34 32 30 24 24 25 26 41 49 56 53 47 47 48 58 55 57 55 52 50 50 56 60 63 67 64 68 71 80 78 82 86 89 88 85 88 89 93 93 88
41 48 55 59 40 36 38 32 31 44 42 41 65 58 54 54 49 58 67 63 63 59 56 54 56 54 54 62 58 67 70 77 81 79 75 83 87 90 88 88 88 90 93 93
42 53 58 57 60 64 39 32 40 50 50 50 53 54 57 61 58 67 75 78 74 71 69 65 62 60 58 60 61 54 76 83 82 84 82 84 91 95 95 89 86 92 94 93
31 42 46 45 52 38 38 34 38 42 67 56 66 68 67 62 59 70 74 73 80 84 85 86 83 80 71 68 82 85 88 88 89 87 87 89 93 96 93 90 86 83 93 95
42 39 38 49 45 42 50 34 30 32 75 67 70 77 79 75 74 87 82 75 83 78 79 83 84 84 86 89 87 86 94 94 90 90 85 85 86 92 93 90 90 90 94 94
44 48 41 51 51 51 41 36 35 55 67 74 74 84 92 95 95 92 78 79 78 79 79 77 83 85 82 87 88 88 87 87 84 85 83 83 86 90 91 89 87 91 95 95
42 54 54 51 56 61 47 42 45 66 80 79 90 93 94 91 86 85 82 79 81 80 79 79 84 83 76 73 77 86 91 83 84 88 90 91 92 86 81 94 91 89 95 96
38 38 46 47 58 60 69 72 77 76 85 89 93 90 85 86 89 84 85 85 80 79 86 78 80 79 78 76 81 89 89 86 86 85 84 88 93 88 83 93 94 97 97 97
48 45 42 48 68 65 73 79 76 78 86 84 86 85 84 90 87 84 89 88 91 91 85 82 82 85 82 77 82 82 82 84 90 96 94 91 96 90 88 94 98 98 98 99
42 56 58 76 76 78 69 76 80 84 81 83 82 82 84 86 87 88 92 91 92 92 89 92 96 94 84 83 88 91 90 90 96 93 91 93 97 96 95 97 100 99 100 100
50 54 60 63 63 65 66 78 82 85 82 84 86 86 85 85 87 89 93 92 93 94 93 96 95 95 92 91 94 93 94 95 98 98 98 98 98 99 99 100 100 99 99 99
Wind_Speed
5 5 6 13 11 12 9 6 7 8 8 7 12 7 19 18 15 17 16 15 13 12 10 9 14 16 15 15 13 9 10 7 5 2 2 1 2 3 3 4 6 6 6 5
7 5 13 8 1 6 10 3 5 2 5 7 7 11 17 20 21 21 19 16 15 13 14 11 13 16 19 17 13 11 11 8 6 4 3 3 2 3 3 4 5 6 6 6
6 11 8 5 6 8 5 5 4 5 3 4 3 3 16 17 19 16 16 13 10 15 17 14 13 14 15 16 12 12 11 10 6 6 2 1 2 2 2 2 3 6 8 7
5 7 5 4 4 5 5 4 3 5 5 4 5 5 8 18 19 18 11 7 1 7 12 6 6 7 14 14 13 12 12 12 8 8 5 5 4 4 3 3 4 6 9 9
7 5 6 8 1 2 4 2 4 3 3 4 1 3 8 15 12 5 14 13 13 12 11 6 10 9 8 14 13 12 11 12 11 11 9 7 5 4 4 3 5 7 8 9
8 1 4 2 2 3 2 4 8 6 4 4 5 7 6 9 9 10 14 18 16 13 14 6 11 1 7 7 9 7 10 12 11 12 11 13 11 9 6 6 4 5 6 8
5 2 1 4 4 9 10 8 5 5 5 7 3 5 6 7 16 21 19 12 15 12 13 15 15 1 4 7 6 4 5 7 8 10 10 11 11 12 13 11 8 7 8 6
4 4 1 1 3 3 3 7 7 2 2 5 6 6 5 4 11 7 9 12 13 12 12 14 12 6 4 6 7 6 1 6 6 8 12 10 13 9 9 11 9 7 8 10
4 1 3 4 2 5 3 3 5 4 2 5 3 5 15 13 15 14 15 12 7 6 6 5 2 3 7 6 4 5 3 5 7 8 10 12 11 14 13 14 12 9 8 9
1 5 4 2 5 4 5 2 5 5 2 4 3 4 7 5 10 16 17 15 9 12 13 10 8 6 7 8 4 1 3 3 5 7 4 9 15 15 16 13 14 13 11 11
3 5 6 5 3 5 5 4 6 6 4 5 4 4 2 2 1 7 9 11 13 14 12 12 12 10 9 6 4 4 3 4 5 4 6 12 16 18 15 16 16 15 13 11
2 6 1 5 9 2 4 3 5 7 4 5 7 1 6 9 11 13 14 14 12 10 7 7 8 8 7 6 3 5 4 4 4 4 6 9 14 14 16 17 18 16 15 13
3 4 4 10 10 9 6 5 4 5 4 1 7 3 3 9 11 9 11 8 7 9 8 6 7 6 5 4 3 2 1 4 6 5 5 6 9 13 15 18 18 18 16 16
8 4 7 6 4 4 4 6 4 6 4 4 3 8 2 6 7 7 7 7 7 7 8 7 7 6 4 3 1 3 4 4 4 5 6 6 7 8 9 13 16 16 16 17
6 4 4 4 2 4 4 7 7 1 5 6 7 8 2 4 5 4 7 11 13 13 8 6 5 4 4 5 6 5 5 5 4 5 7 7 7 8 9 10 10 13 14 15
5 2 4 7 7 7 3 7 8 5 13 17 12 7 1 5 7 11 9 9 9 8 10 10 9 7 7 6 6 6 7 6 5 5 7 7 7 7 10 11 12 11 13 17
4 4 4 4 6 6 5 7 9 10 10 8 5 4 2 5 6 5 7 7 7 9 11 11 10 10 9 9 9 8 8 7 6 6 7 7 7 7 8 11 12 14 13 13
5 4 3 4 4 0 4 3 16 19 11 10 9 6 6 3 1 8 7 9 10 12 14 14 11 10 12 11 10 11 8 7 7 7 7 7 6 7 6 10 13 15 11 13
7 5 3 4 2 3 3 4 1 3 3 3 8 5 3 4 3 1 12 9 8 13 13 13 14 16 14 11 9 9 6 6 6 7 6 6 6 7 10 11 11 15 14 13
7 7 6 2 2 4 4 4 3 4 1 3 7 5 8 7 6 4 13 16 16 14 11 15 15 16 13 11 10 10 7 8 9 8 10 11 10 10 11 12 13 14 14 14
3 3 5 3 3 3 2 1 2 3 5 3 6 5 4 3 1 4 9 11 13 15 17 17 13 14 12 9 9 11 11 10 10 12 13 13 12 12 12 14 13 14 14 14
7 6 4 2 3 5 2 3 2 6 4 7 5 4 5 4 3 4 6 8 9 11 13 14 13 14 15 12 10 12 11 12 13 13 14 14 13 11 11 14 14 15 15 15
2 7 6 6 6 3 4 6 4 7 6 5 5 4 6 4 3 2 3 6 7 10 10 10 9 11 13 13 11 13 14 14 16 16 17 17 15 14 14 15 15 12 13 11
6 3 4 4 3 3 4 3 5 7 8 6 6 6 6 6 6 5 6 6 5 5 8 9 10 11 12 13 14 13 15 15 17 16 17 17 14 15 15 12 11 12 8 8
5 4 3 2 3 1 4 4 7 8 9 9 7 6 7 6 6 7 6 8 7 8 8 7 8 10 12 14 14 14 14 15 17 16 16 15 12 13 13 11 3 6 5 5
3 6 4 6 8 6 5 10 11 12 11 11 8 6 6 7 8 7 8 8 10 10 10 10 11 11 13 13 14 15 15 18 15 14 10 10 9 9 9 6 3 3 4 7
Wind_Direction
335 41 261 267 221 231 178 231 182 208 191 146 200 195 180 180 186 183 189 190 186 177 183 156 149 153 155 164 163 168 165 176 157 143 159 157 207 159 193 211 222 214 212 195
360 290 265 249 189 69 31 92 187 156 150 161 191 217 191 181 194 189 185 187 182 167 163 167 155 152 167 169 173 166 179 168 173 162 165 154 187 229 171 213 215 215 219 206
174 249 308 72 43 48 28 62 2 169 158 253 56 322 181 201 195 192 191 182 180 169 168 172 163 160 163 171 169 170 172 172 172 175 122 59 23 330 317 193 224 216 220 220
236 277 194 56 53 99 50 289 85 52 71 213 98 264 211 199 197 188 166 134 154 172 168 149 145 156 169 177 176 169 170 171 174 172 168 177 185 227 237 218 215 210 219 227
269 28 52 63 45 90 182 285 322 140 89 342 162 73 272 185 185 136 126 111 96 86 81 99 154 151 190 178 179 174 171 175 179 182 183 190 206 230 249 225 223 222 217 221
216 182 98 140 314 355 154 43 30 40 76 11 259 132 290 183 150 120 117 119 107 82 70 5 311 341 165 181 179 175 174 185 186 190 190 194 195 211 234 247 220 211 225 229
344 6 39 88 31 7 62 49 356 15 10 226 50 58 261 118 123 132 125 125 125 145 194 170 224 133 68 110 98 160 183 205 210 206 209 216 214 215 221 225 221 210 214 221
113 359 349 23 122 182 92 133 144 174 212 269 357 16 344 66 104 104 100 126 145 178 198 206 222 174 120 95 85 65 52 221 220 223 235 232 228 226 232 230 222 207 219 219
89 91 14 81 55 108 313 40 187 121 350 66 6 13 31 43 58 72 93 109 125 148 161 177 205 151 136 106 96 24 112 337 273 233 238 238 239 240 237 235 228 223 207 218
136 80 312 254 50 2 112 198 37 9 55 72 322 56 125 43 92 93 92 94 84 86 82 73 87 85 91 88 94 298 76 36 10 27 8 286 248 236 239 243 239 231 227 212
90 95 286 18 6 193 10 16 52 109 97 137 99 351 334 270 219 113 103 104 112 112 111 101 92 87 84 110 181 203 68 29 6 338 294 314 264 232 230 236 238 238 231 214
338 124 131 244 311 89 112 118 108 108 305 44 103 321 358 71 56 70 62 64 60 55 43 93 121 130 135 141 98 57 38 10 320 300 304 317 336 250 235 233 235 234 235 232
342 21 32 351 353 6 51 1 62 110 86 162 110 167 24 67 59 58 70 54 49 51 45 62 54 56 75 75 86 133 255 311 317 305 318 316 328 346 265 243 239 236 236 237
78 87 133 163 212 231 341 339 50 97 82 117 83 154 209 48 59 46 52 50 48 61 51 65 41 18 3 0 340 302 295 255 278 311 314 316 316 315 310 295 259 243 236 235
95 110 118 175 329 2 307 318 318 345 174 118 199 118 135 89 79 50 30 24 34 26 41 32 10 337 320 310 311 294 270 279 268 294 311 299 292 306 302 302 293 264 248 236
21 3 51 355 9 24 335 323 316 359 88 103 117 99 50 42 44 42 42 35 31 12 357 349 340 320 308 288 265 271 271 275 255 274 280 278 284 291 303 298 293 286 277 256
82 105 73 302 344 1 24 314 80 64 43 139 106 139 128 60 49 70 45 25 359 345 333 322 312 305 303 293 284 269 253 244 252 256 269 274 273 274 292 300 304 295 287 277
115 93 101 213 31 264 223 40 98 91 65 69 82 77 62 33 353 114 35 13 354 342 332 325 317 303 299 286 278 282 265 249 257 256 257 266 280 285 294 308 303 297 285 284
109 110 78 119 177 268 330 20 62 116 86 96 111 95 84 322 257 20 12 8 347 342 337 331 327 319 305 314 331 315 301 293 287 281 281 282 285 288 294 293 292 291 288 288
63 94 111 97 131 232 208 301 355 71 119 23 96 71 36 20 24 288 350 344 339 336 326 321 322 319 338 339 337 331 322 317 305 310 310 306 297 284 284 287 290 284 279 279
77 36 153 176 221 279 240 246 49 101 217 130 96 79 62 72 142 316 341 335 325 323 323 325 321 312 314 324 333 321 315 303 296 298 295 290 283 280 278 280 279 279 280 274
160 152 194 110 170 260 297 52 164 184 166 135 119 142 109 93 42 344 319 324 319 319 325 324 326 325 320 326 323 310 302 302 300 294 289 284 282 278 284 278 277 271 271 265
69 173 179 156 208 228 307 136 122 157 141 164 139 127 128 131 196 253 280 284 300 317 321 321 320 323 324 316 314 309 303 304 305 298 291 284 278 275 280 276 271 266 261 260
330 138 106 99 312 152 134 89 152 159 139 132 128 158 157 179 196 215 256 276 270 283 299 292 308 319 325 325 312 304 303 299 302 291 282 275 265 273 273 265 264 257 260 257
209 64 112 51 267 314 256 171 151 116 124 138 169 181 174 180 211 221 246 260 268 260 273 287 291 302 320 327 321 304 302 309 308 296 290 281 261 259 261 252 261 291 261 263
189 178 143 216 204 173 215 169 167 157 167 170 169 178 197 207 221 223 246 256 268 280 283 285 291 290 308 325 322 317 317 320 310 306 298 291 273 251 241 216 169 13 358 4